[[{"header":{"parameterUnit":"m.s-1","parameterCategory":1,"la1":30.2991,"la2":30.254,"lo1":-89.0895,"lo2":-89.0444,"dy":0.0017,"dx":0.0017,"nx":28,"ny":28,"refTime":"2024-12-15T09:00:00:Z","depth":0,"parameterNumber":2,"parameterNumberName":"U-component_of_WINDS"},"data":[0,0,0,0,0,0,0,0,0,0,0,0,0,0,0,0,0,0,0,0,0,0,0,0,0,0,0,0,0,0,0,0,0,0,0,0,0,0,0,0,0,0,0,0,0,0,0,0,0,0,0,0,0,0,0,0,0,0,-4.9092,-4.9092,0,-4.9083,-4.9083,-4.9083,-4.8975,-4.8972,-4.897,-4.8967,-4.8957,-4.8959,-4.8962,0,0,0,0,0,0,0,0,0,0,0,0,0,-4.9019,-4.9021,-4.9093,-4.9092,-4.9092,-4.9083,-4.9083,-4.9083,-4.8975,-4.8972,-4.8969,-4.8966,-4.8956,-4.8959,-4.8962,0,0,0,0,0,0,0,0,0,0,0,0,0,-4.9034,-4.9022,-4.9093,-4.9038,-4.9033,-4.9083,-4.9083,-4.9083,-4.8976,-4.8972,-4.8968,-4.8964,-4.8955,-4.8959,-4.8962,-4.9065,0,0,-4.8973,-4.8974,0,0,0,0,0,0,0,0,-4.9034,-4.9037,-4.9046,-4.9041,-4.9036,-4.9026,-4.9053,-4.9077,-4.8977,-4.8998,-4.8967,-4.8962,-4.8983,-4.8984,-4.8991,-4.9064,-4.9064,-4.8973,-4.8975,-4.8976,-4.8977,0,0,0,0,0,0,0,-4.9033,-4.9037,-4.9089,-4.9046,-4.904,-4.9014,-4.9012,-4.9057,-4.9013,-4.8995,-4.8988,-4.8988,-4.898,-4.8988,-4.899,-4.9064,-4.8973,-4.8976,-4.8978,-4.8979,-4.9222,-4.9226,0,0,0,0,0,0,-4.9039,-4.9037,-4.9089,-4.9088,-4.9025,-4.9019,-4.9016,-4.9033,-4.9013,-4.9005,-4.8991,-4.8983,-4.8985,-4.8986,-4.899,-4.9108,-4.8976,-4.898,-4.8981,-4.9217,-4.9223,-4.9227,0,0,0,0,0,0,-4.9038,-4.9045,-4.9089,-4.9061,-4.9064,-4.9024,-4.9045,-4.9035,-4.9043,-4.901,-4.9001,-4.9008,-4.8981,-4.8985,-4.9047,-4.9107,-4.8981,-4.8984,-4.9212,-4.9219,-4.9225,-4.9347,0,0,0,0,0,0,-4.9036,-4.9045,-4.9083,-4.9062,-4.9066,-4.9147,-4.9048,-4.9038,-4.905,-4.9039,-4.9023,-4.9016,-4.8978,-4.9043,-4.9051,-4.9109,-4.8987,-4.9207,-4.9215,-4.9223,-4.9338,-4.9357,-4.9374,0,0,0,0,0,-4.9034,-4.9117,-4.9085,-4.9092,-4.9113,-4.915,-4.9153,-4.9107,-4.9055,-4.9093,-4.9072,-4.9017,-4.91,-4.905,-4.9058,-4.9118,-4.9203,-4.9213,-4.9222,-4.933,-4.9354,-4.9374,0,0,0,0,0,0,-4.9145,-4.9113,-4.9078,-4.9157,-4.9157,-4.9132,-4.9178,-4.9134,-4.9149,-4.9138,-4.9081,-4.9079,-4.915,-4.914,-4.9086,-4.9217,-4.9142,-4.9154,-4.9221,-4.9243,-4.9261,-4.9261,-4.899,0,0,0,0,0,-4.9179,-4.9212,-4.9183,-4.9255,-4.9258,-4.9219,-4.9233,-4.9199,-4.9197,-4.9196,-4.9179,-4.918,-4.9206,-4.9224,-4.9246,-4.9337,-4.9332,-4.9383,-4.9401,-4.9416,-4.9426,-4.9475,-4.9497,-4.926,-4.926,-4.926,0,0,-4.9249,-4.9236,-4.926,-4.9277,-4.9274,-4.931,-4.9219,-4.9261,-4.9287,-4.9203,-4.926,-4.9249,-4.9246,-4.9323,-4.9356,-4.9317,-4.9491,-4.9429,-4.9441,-4.9443,-4.9487,-4.951,-4.953,-4.9267,-4.9266,-4.9264,0,0,-4.9394,-4.9388,-4.9448,-4.9447,-4.9443,-4.9417,-4.9432,-4.9414,-4.9403,-4.9461,-4.9399,-4.943,-4.9476,-4.9476,-4.9483,-4.9633,-4.9583,-4.9642,-4.9736,-4.9784,-4.9802,-4.9819,-4.9872,-4.9892,-4.9653,-4.9653,-4.9653,0,-4.9481,-4.9532,-4.9484,-4.9531,-4.9541,-4.9467,-4.9528,-4.953,-4.9533,-4.9542,-4.9499,-4.9557,-4.9549,-4.9626,-4.9663,-4.9671,-4.9687,-4.9642,-4.9804,-4.9819,-4.9834,-4.9884,-4.9905,-4.966,-4.9659,-4.9659,-4.9658,0,-4.964,-4.9677,-4.9726,-4.9732,-4.9748,-4.9802,-4.9763,-4.9785,-4.975,-4.9729,-4.979,-4.9779,-4.9798,-4.9815,-4.978,-4.9888,-4.9864,-4.9814,-4.9736,-4.9864,-4.9911,-4.993,-4.967,-4.9668,-4.9666,-4.9664,0,0,-4.9851,-4.9833,-4.9851,-4.9854,-4.9846,-4.9874,-4.9926,-4.9945,-4.9966,-4.9972,-5.0014,-5.0056,-5.001,-5.0017,-4.9983,-5.0026,-5.0146,-4.997,-4.9969,-5.0002,-5.0264,-5.0301,-5.0325,-5.0114,-5.0117,-5.012,-5.0264,0,-4.9991,-5.0076,-5.0036,-5.0127,-5.0161,-5.0094,-5.0139,-5.014,-5.0123,-5.015,-5.0131,-5.0162,-5.0098,-5.0103,-5.0142,-5.0123,-5.0197,-5.0112,-5.0152,-5.0154,-5.0154,-5.0349,-5.0388,-5.0524,-5.0282,-5.0285,-5.0287,0,-5.0164,-5.0179,-5.0273,-5.0261,-5.0274,-5.0315,-5.0331,-5.0358,-5.0358,-5.0343,-5.0354,-5.031,-5.0361,-5.0286,-5.0355,-5.0298,-5.0313,-5.0306,-5.0311,-5.0311,-5.0227,-5.0354,-5.0566,-5.0586,-5.0315,-5.0313,-5.0311,0,-5.0308,-5.0352,-5.0414,-5.0419,-5.0407,-5.0437,-5.0434,-5.043,-5.0445,-5.046,-5.0469,-5.0489,-5.05,-5.0517,-5.0482,-5.043,-5.0556,-5.0478,-5.0545,-5.0546,-5.0572,-5.0571,-5.0789,-5.0584,-5.0584,-5.0584,-5.0583,0,-5.0467,-5.0528,-5.0479,-5.0517,-5.0584,-5.0538,-5.0606,-5.0595,-5.0593,-5.0628,-5.0572,-5.0607,-5.0558,-5.0589,-5.0561,-5.0623,-5.0628,-5.0618,-5.0609,-5.0622,-5.0623,-5.0629,-5.0619,-5.0589,-5.0588,-5.0587,-5.0586,0,-5.0638,-5.0608,-5.0672,-5.0656,-5.0654,-5.0704,-5.069,-5.0726,-5.0706,-5.0752,-5.0761,-5.073,-5.0763,-5.073,-5.076,-5.0742,-5.0825,-5.0804,-5.0825,-5.0819,-5.0888,-5.0881,-5.1116,-5.1145,-5.0923,-5.0925,-5.0927,0,-5.0741,-5.0786,-5.0776,-5.0796,-5.0796,-5.083,-5.0845,-5.0804,-5.0823,-5.0828,-5.0863,-5.0892,-5.0912,-5.0969,-5.0949,-5.0973,-5.0951,-5.1032,-5.0954,-5.0966,-5.0952,-5.0949,-5.0954,-5.1047,-5.105,-5.1052,-5.1054,0,-5.0926,-5.091,-5.0935,-5.0956,-5.0977,-5.0991,-5.1001,-5.1021,-5.0978,-5.1003,-5.1036,-5.1053,-5.1085,-5.1115,-5.1134,-5.113,-5.1086,-5.1079,-5.1096,-5.1108,-5.1119,-5.1114,-5.0867,-5.1073,-5.1071,-5.107,-5.1069,-5.1068,-5.1065,-5.1103,-5.1102,-5.1133,-5.1137,-5.1148,-5.1181,-5.1167,-5.1195,-5.1218,-5.1192,-5.1234,-5.1236,-5.1256,-5.1259,-5.1291,-5.1257,-5.1281,-5.1287,-5.1293,-5.1303,-5.1115,-5.1294,-5.1294,-5.1293,-5.1293,-5.1292,0,-5.1247,-5.1244,-5.1273,-5.129,-5.1315,-5.1272,-5.1282,-5.1305,-5.1343,-5.1349,-5.1371,-5.1411,-5.144,-5.1425,-5.145,-5.1479,-5.1459,-5.1487,-5.1484,-5.1484,-5.1332,-5.1315,-5.1503,-5.1503,-5.1503,-5.1503,-5.1503,-5.1503,-5.1344,-5.1406,-5.1391,-5.1455,-5.1451,-5.1492,-5.1502,-5.1513,-5.1517,-5.1565,-5.1589,-5.1579,-5.1577,-5.1602,-5.1628,-5.1622,-5.1634,-5.1669,-5.1657,-5.1515,-5.1494,-5.1475,-5.1458,-5.1672,-5.1673,-5.1805,-5.1806,-5.1807]},{"header":{"parameterUnit":"m.s-1","parameterCategory":1,"la1":30.2991,"la2":30.254,"lo1":-89.0895,"lo2":-89.0444,"dy":0.0017,"dx":0.0017,"nx":28,"ny":28,"refTime":"2024-12-15T09:00:00:Z","depth":0,"parameterNumber":3,"parameterNumberName":"V-component_of_WINDS"},"data":[0,0,0,0,0,0,0,0,0,0,0,0,0,0,0,0,0,0,0,0,0,0,0,0,0,0,0,0,0,0,0,0,0,0,0,0,0,0,0,0,0,0,0,0,0,0,0,0,0,0,0,0,0,0,0,0,0,0,1.0109,1.0109,0,1.0063,1.0062,1.0062,1.0049,1.0049,1.0049,1.0049,1.0,0.9998,0.9997,0,0,0,0,0,0,0,0,0,0,0,0,0,1.0186,1.0185,1.0109,1.0109,1.0108,1.0063,1.0062,1.0062,1.0049,1.0049,1.0049,1.0049,1.0,0.9998,0.9996,0,0,0,0,0,0,0,0,0,0,0,0,0,1.0147,1.0184,1.011,1.0096,1.0095,1.0063,1.0062,1.0062,1.0048,1.0049,1.0049,1.005,1.0001,0.9998,0.9996,0.9974,0,0,0.9989,0.9988,0,0,0,0,0,0,0,0,1.015,1.0145,1.0099,1.0097,1.0095,1.0062,1.0071,1.0032,1.0048,1.0066,1.0049,1.005,1.002,1.0016,1.0006,0.9972,0.9969,0.9989,0.9987,0.9986,0.9986,0,0,0,0,0,0,0,1.0152,1.0147,1.0091,1.0098,1.0096,1.0092,1.0087,1.0064,1.0041,1.0064,1.0063,1.0058,1.0019,1.0009,1.0005,0.9969,0.9989,0.9987,0.9985,0.9984,0.9915,0.9915,0,0,0,0,0,0,1.0157,1.0149,1.0092,1.009,1.0124,1.0091,1.0085,1.0072,1.0041,1.0037,1.0058,1.0058,1.0013,1.0008,1.0003,0.9976,0.9986,0.9984,0.9983,0.9916,0.9915,0.9915,0,0,0,0,0,0,1.0159,1.0153,1.0094,1.0119,1.0111,1.0089,1.0075,1.0071,1.0061,1.0037,1.0032,1.0052,1.0013,1.0007,0.9982,0.9974,0.9983,0.9981,0.9916,0.9915,0.9915,0.9922,0,0,0,0,0,0,1.0161,1.0153,1.0145,1.0119,1.011,1.0074,1.0074,1.007,1.0057,1.0056,1.0029,1.0025,1.0012,0.9985,0.998,0.9971,0.9979,0.9917,0.9916,0.9915,0.9922,0.9921,0.9921,0,0,0,0,0,1.0164,1.0147,1.0144,1.0137,1.0099,1.0073,1.0068,1.0054,1.0057,1.0048,1.0032,1.0026,0.9976,0.9983,0.9976,0.9967,0.9917,0.9916,0.9915,0.9922,0.9921,0.9921,0,0,0,0,0,0,1.0171,1.0144,1.014,1.0114,1.0097,1.0071,1.0059,1.0054,1.0034,1.0034,1.0017,1.0012,0.9988,0.9975,0.9983,0.9945,0.9947,0.9944,0.9954,0.9953,0.9953,0.9956,0.9977,0,0,0,0,0,1.017,1.0152,1.0129,1.0109,1.01,1.0082,1.007,1.0061,1.0042,1.0034,1.0016,0.9997,0.9978,0.9965,0.9945,0.992,0.9915,0.9911,0.991,0.991,0.9908,0.9895,0.9893,0.9911,0.9911,0.9911,0,0,1.0167,1.015,1.0139,1.011,1.0095,1.0077,1.0075,1.0056,1.0042,1.003,1.0006,0.9994,0.9971,0.9947,0.9935,0.9935,0.9902,0.9909,0.9908,0.9907,0.9894,0.9892,0.9891,0.9911,0.9911,0.9911,0,0,1.0153,1.0138,1.012,1.0105,1.0084,1.0072,1.0068,1.0044,1.0035,1.0011,1.0002,0.9986,0.9952,0.9937,0.9924,0.9907,0.99,0.9901,0.9897,0.9885,0.9883,0.9882,0.9876,0.9874,0.9899,0.9899,0.9899,0,1.0151,1.0124,1.0111,1.0093,1.008,1.0071,1.0053,1.0039,1.0012,1.0003,1.0004,0.9962,0.9946,0.9919,0.9915,0.9905,0.99,0.9903,0.9885,0.9883,0.9882,0.9876,0.9874,0.9899,0.9899,0.9899,0.9899,0,1.0124,1.0105,1.0094,1.0069,1.0055,1.0037,1.0022,1.0009,1.0002,0.999,0.9967,0.9948,0.9925,0.9918,0.991,0.9889,0.989,0.9888,0.9889,0.9881,0.9875,0.9873,0.9899,0.9899,0.9899,0.9899,0,0,1.0111,1.0081,1.0077,1.0066,1.0042,1.0028,1.001,0.9988,0.9979,0.996,0.9945,0.9918,0.9916,0.9902,0.9893,0.9882,0.9871,0.9881,0.9881,0.988,0.9848,0.985,0.9847,0.9867,0.9866,0.9866,0.985,0,1.0093,1.0061,1.005,1.0024,1.0007,0.9999,0.9983,0.9967,0.9956,0.994,0.9927,0.9908,0.9907,0.9899,0.9888,0.9874,0.9864,0.9875,0.9852,0.9851,0.9858,0.9844,0.9846,0.9832,0.9848,0.9847,0.9847,0,1.0068,1.0052,1.0024,1.0004,0.9996,0.9983,0.9963,0.9948,0.993,0.9923,0.9909,0.99,0.9882,0.9885,0.9859,0.9867,0.9857,0.9849,0.9848,0.9845,0.9848,0.9841,0.9827,0.9825,0.9843,0.9844,0.9844,0,1.0062,1.0033,1.0013,1.0004,0.998,0.9971,0.996,0.9942,0.9931,0.9914,0.9906,0.9887,0.9876,0.9861,0.9848,0.9852,0.9824,0.9825,0.9817,0.9818,0.9811,0.9812,0.9795,0.9805,0.9805,0.9805,0.9805,0,1.0044,1.0027,1.001,0.9998,0.9979,0.9967,0.9949,0.9938,0.9923,0.9908,0.9899,0.9886,0.987,0.9854,0.9844,0.9824,0.9819,0.9813,0.981,0.9814,0.9815,0.9807,0.9807,0.9804,0.9804,0.9805,0.9805,0,1.0034,1.0021,0.9999,0.9979,0.9974,0.9961,0.9944,0.9932,0.9921,0.9903,0.9898,0.9881,0.9862,0.9848,0.9824,0.9817,0.9796,0.9793,0.9803,0.9801,0.9794,0.9795,0.9772,0.9768,0.978,0.978,0.978,0,1.0023,1.001,0.999,0.998,0.997,0.9954,0.9943,0.993,0.9919,0.9899,0.9889,0.987,0.9855,0.9825,0.981,0.9792,0.9789,0.9782,0.9786,0.979,0.9789,0.979,0.9789,0.9781,0.9781,0.9781,0.9781,0,1.0005,1.0,0.9985,0.9968,0.9955,0.994,0.9926,0.9918,0.9904,0.9891,0.9873,0.9861,0.9837,0.9819,0.9799,0.9788,0.9782,0.978,0.9777,0.978,0.9786,0.9784,0.9801,0.978,0.978,0.9781,0.9781,0.9781,0.9994,0.9983,0.9968,0.9951,0.9939,0.9926,0.9915,0.9903,0.9888,0.9868,0.9862,0.9843,0.9827,0.98,0.9789,0.9774,0.9774,0.977,0.9769,0.9768,0.9769,0.9789,0.9771,0.9771,0.9771,0.9771,0.9771,0,0.9976,0.9966,0.9951,0.9932,0.992,0.9917,0.9901,0.989,0.9874,0.986,0.9845,0.9825,0.9808,0.9792,0.9774,0.9765,0.9762,0.9761,0.9761,0.9759,0.9769,0.9774,0.9764,0.9764,0.9764,0.9764,0.9764,0.9764,0.9965,0.9947,0.9941,0.9917,0.9907,0.9889,0.9881,0.9869,0.9858,0.9836,0.9822,0.9812,0.9798,0.9779,0.9763,0.9759,0.9752,0.9752,0.9747,0.9757,0.9758,0.9759,0.9763,0.9751,0.9751,0.9738,0.9738,0.9738]}]]